Location: Castelbiague
(43.0361°N, 0.9246°E)
Time: 07:28:30
(UTC+00:00)

USA 215 - Pass Details

Date: 21 October 2021
Orbit: 1099 x 1109 km, 123.0° (Epoch: 20 November)

Event Time Altitude Azimuth Distance (km) Brightness Sun altitude
Exits shadow 21:21:57 21° 334° (NNW) 2,241 5.2 -46.1°
Drops below altitude 10° 21:24:26 10° 317° (NW) 2,964 6.1 -46.4°
Sets 21:27:13 0° 307° (NW) 3,925 6.9 -46.8°
